Meteo Giornale » Osservazioni meteo Italia » Milano-Linate

ore: 19:50 - Osservazioni Meteo Milano-Linate
Lat. 45° 26' N Lon. 9° 17' E Alt. 107 metri s.l.m.

molto_nuvoloso Europe/Rome

17 °C

Molto Nuvoloso

Temp. 24 Ore

13 °C

18 °C

Nord

11.1 Km/h

Dew point 10 °C

Umidità 63 %

Visibilità  8 Km

Il sole sorge alle ore 06:17

Il sole tramonta alle ore 20:23

Data e Ora Cielo e Fenomeni T °C DP °C Um. % Pres. hPa Vis. km Vento km/h
Oggi h: 19:50 molto_nuvoloso Molto Nuvoloso 17 10 63 1008 8 N 11.1
Oggi h: 19:20 molto_nuvoloso Molto Nuvoloso 17 10 63 1008 8 E 7.4
Oggi h: 18:50 molto_nuvoloso Molto Nuvoloso 18 10 59 1008 8 E 9.3
Oggi h: 18:20 molto_nuvoloso Molto Nuvoloso 18 10 59 1009 8 E 11.1
Oggi h: 17:50 molto_nuvoloso Molto Nuvoloso 18 10 59 1009 8 N 5.5
Oggi h: 17:20 molto_nuvoloso Molto Nuvoloso 18 10 59 1009 8 E 9.3
Oggi h: 16:50 molto_nuvoloso Molto Nuvoloso 18 10 59 1010 8 E 9.3
Oggi h: 16:20 coperto_pioggia Pioggia Debole 18 11 63 1010 8 E 9.3
Oggi h: 15:50 coperto_pioggia Pioggia Debole 17 10 63 1011 8 N 7.4
Oggi h: 15:20 molto_nuvoloso Molto Nuvoloso 18 10 59 1011 8 E 14.8
Oggi h: 14:50 molto_nuvoloso Molto Nuvoloso 18 10 59 1011 8 E 16.7
Oggi h: 14:20 molto_nuvoloso Molto Nuvoloso 18 10 59 1011 8 E 11.1
Oggi h: 13:50 molto_nuvoloso Molto Nuvoloso 18 10 59 1012 6 E 14.8
Oggi h: 13:20 foschia Foschia 18 10 59 1012 5 E 11.1
Oggi h: 12:50 foschia Foschia 17 10 63 1012 5 E/NE 14.8
Oggi h: 12:20 foschia Foschia 17 10 63 1013 5 E 11.1
Oggi h: 11:50 foschia Foschia 17 10 63 1013 5 E 11.1
Oggi h: 11:20 foschia Foschia 17 10 63 1013 5 E 9.3
Oggi h: 10:20 foschia Foschia 15 12 82 1013 4 E 7.4
Oggi h: 09:50 foschia Foschia 14 12 87 1013 3 E/SE 11.1
Oggi h: 09:20 foschia Foschia 14 12 87 1014 3 E 13
Oggi h: 08:50 foschia Foschia 13 12 93 1014 3 E/SE 7.4
Oggi h: 08:20 foschia Foschia 13 12 93 1014 3 E/SE 9.3
Oggi h: 07:50 foschia Foschia 13 12 93 1013 4 E/NE 9.3
Oggi h: 07:20 foschia Foschia 13 12 93 1013 4 N 5.5
Oggi h: 06:50 foschia Foschia 13 11 87 1013 4 N 5.5
Oggi h: 06:20 foschia Foschia 13 11 87 1013 5 NE 7.4
Oggi h: 05:50 molto_nuvoloso Molto Nuvoloso 14 8 67 1013 10 N 1.8
Oggi h: 05:20 molto_nuvoloso Molto Nuvoloso 15 8 62 1013 10 N 3.7
Oggi h: 04:50 molto_nuvoloso Molto Nuvoloso 15 8 62 1014 10 N 1.8
Oggi h: 04:20 molto_nuvoloso Molto Nuvoloso 15 9 67 1014 10 N 1.8
Oggi h: 03:50 molto_nuvoloso Molto Nuvoloso 14 8 67 1014 10 N 5.5
Oggi h: 03:20 molto_nuvoloso Molto Nuvoloso 15 8 62 1014 10 N 3.7
Oggi h: 02:50 molto_nuvoloso Molto Nuvoloso 15 9 67 1015 10 N 5.5
Oggi h: 02:20 molto_nuvoloso Molto Nuvoloso 15 9 67 1015 10 N 3.7
Oggi h: 01:50 molto_nuvoloso Molto Nuvoloso 15 9 67 1015 10 N 3.7
Oggi h: 01:20 molto_nuvoloso Molto Nuvoloso 15 9 67 1015 10 N 0
Oggi h: 00:50 molto_nuvoloso Molto Nuvoloso 15 9 67 1015 10 N 0
Oggi h: 00:20 molto_nuvoloso Molto Nuvoloso 15 9 67 1016 10 N 0
Ieri h: 23:50 molto_nuvoloso Molto Nuvoloso 15 8 62 1016 10 N 1.8
Ieri h: 23:20 molto_nuvoloso Molto Nuvoloso 16 8 58 1016 10 N 1.8
Ieri h: 22:50 molto_nuvoloso Molto Nuvoloso 16 8 58 1016 10 N 3.7
Ieri h: 22:20 molto_nuvoloso Molto Nuvoloso 16 8 58 1017 10 N 5.5
Ieri h: 21:50 molto_nuvoloso Molto Nuvoloso 16 8 58 1017 10 N 5.5
Ieri h: 21:20 molto_nuvoloso Molto Nuvoloso 16 8 58 1016 10 N 5.5
Ieri h: 20:50 molto_nuvoloso Molto Nuvoloso 16 9 63 1016 10 N 3.7